Lamoni, IA

11:49 PM CDT on June 28, 2017 (GMT -0500)
Lamoni Municipal

Weather History for KLWD - November, 2013

Change the Weather History Date:

Friday, November 8, 2013

  Actual Average Record
Temperature  
Mean Temperature 46 °F 44 °F  
Max Temperature 61 °F 53 °F 78 °F (1999)
Min Temperature 30 °F 34 °F -4 °F (1991)
Degree Days  
Heating Degree Days 19 21  
Month to date heating degree days 148 159  
Since 1 July heating degree days 582 643  
Cooling Degree Days 0 0  
Month to date cooling degree days 0 0  
Year to date cooling degree days 1093 946  
Moisture  
Dew Point 29 °F    
Average Humidity 57    
Maximum Humidity 78    
Minimum Humidity 36    
Precipitation  
Precipitation 0.00 in 0.07 in 0.82 in (2011)
Month to date precipitation 0.86 0.84  
Sea Level Pressure  
Sea Level Pressure 30.05 in    
Wind  
Wind Speed 14 mph (South)    
Max Wind Speed 35 mph    
Max Gust Speed 45 mph    
Visibility 10 miles    
Events      
T = Trace of Precipitation, MM = Missing Value Source: NWS Daily Summary

Daily Weather History Graph

Daily Weather History Graph

Search for Another Location

Airport or City:

Trip Planner

Search our weather history database for the weather conditions in past years. The results will help you decide how hot, cold, wet, or windy it might be!

Date:

Astronomy

Nov. 08, 2013 Rise Set
Actual Time 6:54 AM CST 5:03 PM CST
Civil Twilight 6:25 AM CST 5:32 PM CST
Nautical Twilight 5:52 AM CST 6:05 PM CST
Astronomical Twilight 5:20 AM CST 6:37 PM CST
Moon 11:50 AM CST (11/8) 10:25 PM CST (11/8)
Length of Visible Light 11h 07m
Length of Day
10h 09m
Waxing Crescent, 33% of the Moon is Illuminated
Nov 8
Waxing Crescent
Nov 9
First Quarter
Nov 17
Full
Nov 25
Last Quarter
Dec 2
New

Hourly Weather History & Observations

Time (CST) Temp. Windchill Dew Point Humidity Pressure Visibility Wind Dir Wind Speed Gust Speed Precip Events Conditions
12:53 AM 32.0 °F 25.6 °F 21.9 °F 66% 30.33 in 10.0 mi SW 6.9 mph - N/A   Clear
1:53 AM 30.0 °F 22.4 °F 21.0 °F 69% 30.32 in 10.0 mi SSW 8.1 mph - N/A   Clear
2:53 AM 33.1 °F 26.9 °F 21.9 °F 64% 30.29 in 10.0 mi South 6.9 mph - N/A   Clear
3:53 AM 32.0 °F 24.8 °F 21.9 °F 66% 30.28 in 10.0 mi South 8.1 mph - N/A   Clear
4:53 AM 30.9 °F 22.8 °F 21.9 °F 69% 30.27 in 10.0 mi South 9.2 mph - N/A   Clear
5:53 AM 30.9 °F 23.5 °F 23.0 °F 72% 30.26 in 10.0 mi SSE 8.1 mph - N/A   Clear
6:53 AM 30.9 °F 22.2 °F 24.1 °F 76% 30.24 in 10.0 mi South 10.4 mph - N/A   Clear
7:53 AM 34.0 °F 26.0 °F 25.0 °F 70% 30.22 in 10.0 mi SSE 10.4 mph - N/A   Clear
8:53 AM 37.0 °F 28.5 °F 26.1 °F 65% 30.20 in 10.0 mi SSE 13.8 mph 21.9 mph N/A   Clear
9:53 AM 43.0 °F 36.0 °F 28.0 °F 56% 30.16 in 10.0 mi SSE 13.8 mph 25.3 mph N/A   Clear
10:53 AM 48.0 °F - 28.9 °F 48% 30.10 in 10.0 mi South 19.6 mph 29.9 mph N/A   Clear
11:53 AM 51.1 °F - 32.0 °F 48% 30.03 in 10.0 mi South 18.4 mph 33.4 mph N/A   Clear
12:53 PM 57.9 °F - 34.0 °F 41% 29.95 in 10.0 mi SSE 18.4 mph 29.9 mph N/A   Clear
1:53 PM 60.1 °F - 33.1 °F 36% 29.88 in 10.0 mi South 26.5 mph 41.4 mph N/A   Clear
2:53 PM 61.0 °F - 33.1 °F 35% 29.84 in 10.0 mi South 28.8 mph 39.1 mph N/A   Clear
3:53 PM 60.1 °F - 34.0 °F 38% 29.86 in 10.0 mi South 16.1 mph 34.5 mph N/A   Clear
4:53 PM 59.0 °F - 32.0 °F 36% 29.86 in 10.0 mi SSW 20.7 mph 27.6 mph N/A   Clear
5:53 PM 55.9 °F - 32.0 °F 40% 29.85 in 10.0 mi South 13.8 mph - N/A   Clear
6:53 PM 55.9 °F - 33.1 °F 42% 29.87 in 10.0 mi South 13.8 mph - N/A   Clear
7:53 PM 54.0 °F - 34.0 °F 47% 29.88 in 10.0 mi SSW 12.7 mph - N/A   Clear
8:53 PM 54.0 °F - 35.1 °F 49% 29.88 in 10.0 mi SSW 15.0 mph - N/A   Clear
9:53 PM 52.0 °F - 34.0 °F 50% 29.89 in 10.0 mi SW 15.0 mph - N/A   Clear
10:53 PM 51.1 °F - 34.0 °F 52% 29.90 in 10.0 mi SW 15.0 mph - N/A   Clear
11:53 PM 51.1 °F - 33.1 °F 50% 29.92 in 10.0 mi WSW 16.1 mph - N/A   Clear